Retour au catalogue

COSMOS 1394

ActifNavigationLEO
NORAD 13381·PAYLOAD·🇷🇺 Russia

Lancé Jul 21, 1982 depuis Plesetsk Cosmodrome

Loading…

Prochains Passages (prochaines 24 heures)

TLE

FraisSource: Space-Track

Époque: Sep 14, 2026, 08:25 UTC

1 13381U 82073G   26257.35069775 -.00000025  00000-0 -65939-4 0  9995
2 13381  74.0165  31.7267 0013566  27.7013   0.6542 12.45193140  6933

Suivez COSMOS 1394 en temps réel avec AllMySat

Download on the App Store